Starlink 33707

operational
NORAD ID: 63401 Int'l Des: 2025-065 Owner: SPXS Country: US Constellation: starlink
LEOCIRCULAR

关于 Starlink 33707

正在加载描述...

实时位置

正在加载3D地球...

即将过境

高度历史

Altitude vs Time

uPlot chart will show altitude changes over time

两行轨道根数

1 63401U 25065C 25302.53871654 .00039207 00000-0 14260-2 0 9999
2 63401 42.9952 127.6239 0000101 231.2602 128.8241 15.27596427 32789
Epoch: Oct 29, 2025 • Age: 8 hours

当前状态

高度 486.1 km
速度 7.63 km/s
星下点 43.06°N, 135.84°W
发射日期 Mar 31, 2025
运行时间 0.5 years
类型 internet

技术详情

分类 Payload
质量 575.00 kg
干质量 530.00 kg
总质量 575.00 kg
长度 0.30 m
直径 4.10 m
跨度 29.00 m
形状 Box + pan
制造商 SPXS
平台类型 Starlink V2MO
阶段状态 In Orbit
所有者/国家 SPXS/US

大型星座

Loading constellations...